STARLINK-1682 (46577 NORAD) Tracking and Keplerian Element Data

This shows tracking and keplerian element data for the satellite.

Feedback or suggestion? Click here.




ElementValue
Catalog46577
NameSTARLINK-1682
Epoch Orbit459
Epoch Day304.50002315
Epoch Year2020
RAAN324.0027
Inclination53.0009
Eccentricity9.13E-05
Argument of Perigee38.0885
Mean Anonmoly27.5333
Mean Motion15.62699634
Decay Rate0.0008684
L11 46577U 20070AX 20304.50002315 .00086840 00000-0 94606-3 0 9997
L22 46577 53.0009 324.0027 0000913 38.0885 27.5333 15.62699634 4593

Live tracking and technical data element details for STARLINK-1682 (NORAD 46577). STARLINK-1682 can be tracked NOW for your location showing map with azimuth and elevation plus other details from your city location.

Track the satellite on the map from your city or location and see movement details for azimuth, elevation, latitude, longitude, range, height, and movement on the map or in text.







IsCatalogInMostPopularTable: catalog: 46577, numindb: 3
Update: records affected: 1



GetName: 46577 STARLINK-1682

Hit Count: updated at: Sat, 31 Oct 2020 06:57:50 GMT